This demonstration page uses our WeatherBlox Daily Observations layout. Learn more.

Left ArrowRight Arrow

Hourly Observations for April 25, 2022

Temp ( °F °C ) Dew Point ( °F °C ) Humidity (%) Winds ( mph kmh ) Pressure ( in mb ) Visibility ( mi km ) Precip ( " mm )
12:56 am 00:56 Mostly Cloudy 42 5.7 30 -1.2 62 62 NW 21 33 30.15 1021 10 16 0.00 0.00
1:56 am 01:56 Mostly Cloudy 41 5.2 30 -1.1 64 64 WNW 17 28 30.16 1022 10 16 0.00 0.00
2:56 am 02:56 Cloudy 42 5.4 29 -1.5 61 61 NW 16 26 30.17 1022 10 16 0.00 0.00
3:56 am 03:56 Cloudy 41 4.9 26 -3.4 55 55 NW 22 35 30.18 1022 10 16 0.00 0.00
4:56 am 04:56 Cloudy 40 4.6 25 -3.7 55 55 NW 14 22 30.22 1023 10 16 0.00 0.00
5:56 am 05:56 Mostly Cloudy 40 4.7 27 -2.9 58 58 NW 14 22 30.24 1024 10 16 0.00 0.00
6:56 am 06:56 Cloudy 40 4.7 28 -2.4 60 60 NW 13 20 30.24 1024 8 13 0.00 0.00
7:56 am 07:56 Cloudy 41 4.8 26 -3.5 55 55 NW 21 33 30.27 1025 10 16 0.00 0.00
8:56 am 08:56 Mostly Cloudy 42 5.4 26 -3.4 53 53 NW 15 24 30.28 1025 8 13 0.00 0.00
9:56 am 09:56 Mostly Cloudy 45 7.1 25 -3.7 47 47 NW 20 31 30.29 1026 9 14 0.00 0.00
10:56 am 10:56 Mostly Sunny 46 7.9 25 -3.9 43 43 NNW 21 33 30.31 1026 10 16 0.00 0.00
11:56 am 11:56 Hazy 48 8.7 23 -4.8 38 38 NNW 22 35 30.31 1026 6 10 0.00 0.00
12:47 pm 12:47 Mostly Sunny 48 9 25 -4 40 40 NW 15 24 30.33 1027 10 16 0.00 0.00
12:56 pm 12:56 Mostly Sunny 49 9.6 24 -4.4 37 37 NW 14 22 30.33 1027 10 16 0.00 0.00
1:56 pm 13:56 Mostly Sunny 51 10.4 24 -4.4 35 35 NNW 14 22 30.33 1027 9 14 0.00 0.00
2:56 pm 14:56 Sunny 52 11.3 23 -4.8 32 32 NNW 13 20 30.34 1027 9 14 0.00 0.00
3:38 pm 15:38 undefined 54 12 23 -5 30 30 WNW 20 31 30.32 1027 9 14 0.00 0.00
3:56 pm 15:56 Sunny 53 11.8 22 -5.7 29 29 NW 20 31 30.32 1027 7 11 0.00 0.00
4:23 pm 16:23 Sunny 54 12 23 -5 30 30 NNW 16 26 30.31 1026 8 13 0.00 0.00
4:56 pm 16:56 Sunny 54 12.1 22 -5.4 29 29 NW 16 26 30.32 1027 7 11 0.00 0.00
4:59 pm 16:59 Sunny 54 12 21 -6 28 28 NNW 16 26 30.32 1027 8 13 0.00 0.00
5:15 pm 17:15 Sunny 54 12 21 -6 28 28 N 13 20 30.32 1027 7 11 0.00 0.00
5:47 pm 17:47 Sunny 54 12 21 -6 28 28 NW 18 30 30.33 1027 9 14 0.00 0.00
5:55 pm 17:55 Sunny 54 12 21 -6 28 28 N 18 30 30.33 1027 8 13 0.00 0.00
5:56 pm 17:56 Sunny 54 12.3 21 -6.2 27 27 NNW 17 28 30.33 1027 10 16 0.00 0.00
6:56 pm 18:56 Sunny 53 11.5 19 -7.4 26 26 N 13 20 30.35 1028 9 14 0.00 0.00
7:56 pm 19:56 Sunny 51 10.6 18 -7.6 27 27 NNW 14 22 30.35 1028 10 16 0.00 0.00
8:56 pm 20:56 Clear 47 8.6 18 -7.6 31 31 N 6 9 30.37 1029 8 13 0.00 0.00
9:56 pm 21:56 Clear 46 7.7 18 -8 32 32 N 3 6 30.39 1029 10 16 0.00 0.00
10:56 pm 22:56 Clear 43 6.3 20 -6.6 39 39 WNW 3 6 30.40 1030 10 16 0.00 0.00
11:56 pm 23:56 Clear 42 5.4 21 -6.2 43 43 NW 3 6 30.40 1030 10 16 0.00 0.00

Powered by AerisWeather